Black River Falls, WI

8:02 AM CDT on September 29, 2016 (GMT -0500)
Black River Falls Area

Weather History for KBCK - August, 2013

Change the Weather History Date:

Wednesday, August 21, 2013

  Actual Average (KLSE) Record (KLSE)
Temperature  
Mean Temperature 77 °F 71 °F  
Max Temperature 89 °F 81 °F 103 °F (1955)
Min Temperature 64 °F 61 °F 40 °F (2004)
Degree Days  
Heating Degree Days 0 1  
Month to date heating degree days 1  
Since 1 July heating degree days 6  
Cooling Degree Days 12 7  
Month to date cooling degree days 158  
Year to date cooling degree days 645  
Growing Degree Days 27 (Base 50)    
Moisture  
Dew Point 67 °F    
Average Humidity 76    
Maximum Humidity 100    
Minimum Humidity 48    
Precipitation  
Precipitation 0.02 in 0.13 in 1.94 in (1939)
Month to date precipitation 3.00  
Year to date precipitation 22.67  
Snow  
Snow 0.00 in 0.00 in - ()
Month to date snowfall 0.0  
Since 1 July snowfall 0.0  
Snow Depth -    
Sea Level Pressure  
Sea Level Pressure 29.94 in    
Wind  
Wind Speed 5 mph (SW)    
Max Wind Speed 14 mph    
Max Gust Speed 21 mph    
Visibility 9 miles    
Events Fog , Rain    
T = Trace of Precipitation, MM = Missing Value Source: NWS Daily Summary

Daily Weather History Graph

Daily Weather History Graph

Search for Another Location

Airport or City:

Trip Planner

Search our weather history database for the weather conditions in past years. The results will help you decide how hot, cold, wet, or windy it might be!

Date:

Astronomy

Aug. 21, 2013 Rise Set
Actual Time 6:13 AM CDT 7:58 PM CDT
Civil Twilight 5:43 AM CDT 8:28 PM CDT
Nautical Twilight 5:05 AM CDT 9:06 PM CDT
Astronomical Twilight 4:24 AM CDT 9:46 PM CDT
Moon 8:01 PM CDT (8/21) 6:57 AM CDT (8/21)
Length of Visible Light 14h 45m
Length of Day
13h 44m
Waxing Gibbous, 99% of the Moon is Illuminated
Aug 21
Waxing Gibbous
Aug 28
Last Quarter
Sep 5
New
Sep 12
First Quarter
Sep 19
Full

Hourly Weather History & Observations

Time (CDT) Temp. Heat Index Dew Point Humidity Pressure Visibility Wind Dir Wind Speed Gust Speed Precip Events Conditions
12:15 AM 73.9 °F - 65.3 °F 74% 29.96 in 10.0 mi South 3.5 mph - N/A   Clear
12:35 AM 73.4 °F - 65.3 °F 76% 29.95 in 10.0 mi South 3.5 mph - N/A   Clear
12:55 AM 72.7 °F - 65.1 °F 77% 29.95 in 10.0 mi Calm Calm - N/A   Clear
1:15 AM 71.6 °F - 64.9 °F 79% 29.95 in 10.0 mi Calm Calm - N/A   Clear
1:35 AM 71.4 °F - 64.9 °F 80% 29.94 in 10.0 mi South 3.5 mph - N/A   Clear
1:55 AM 71.1 °F - 64.6 °F 80% 29.93 in 10.0 mi South 3.5 mph - N/A   Clear
2:15 AM 71.2 °F - 64.8 °F 80% 29.94 in 10.0 mi South 3.5 mph - N/A   Clear
2:35 AM 71.1 °F - 64.8 °F 80% 29.94 in 10.0 mi South 3.5 mph - N/A   Clear
2:55 AM 70.7 °F - 64.6 °F 81% 29.94 in 10.0 mi Calm Calm - N/A   Clear
3:15 AM 66.9 °F - 65.3 °F 95% 29.95 in 10.0 mi Calm Calm - N/A   Clear
3:35 AM 66.0 °F - 65.8 °F 99% 29.94 in 7.0 mi Calm Calm - N/A   Clear
3:55 AM 66.4 °F - 65.7 °F 98% 29.95 in 10.0 mi SSW 4.6 mph - N/A   Clear
4:15 AM 67.1 °F - 66.2 °F 97% 29.94 in 10.0 mi South 3.5 mph - N/A   Clear
4:35 AM 68.0 °F - 66.4 °F 95% 29.93 in 10.0 mi South 3.5 mph - N/A   Clear
4:55 AM 68.5 °F - 66.6 °F 93% 29.93 in 10.0 mi South 3.5 mph - N/A   Clear
5:15 AM 68.2 °F - 66.4 °F 94% 29.93 in 10.0 mi South 3.5 mph - N/A   Scattered Clouds
5:35 AM 68.9 °F - 66.7 °F 93% 29.93 in 10.0 mi South 3.5 mph - N/A   Clear
5:55 AM 68.9 °F - 66.9 °F 93% 29.93 in 10.0 mi South 3.5 mph - N/A   Clear
6:15 AM 69.8 °F - 67.1 °F 91% 29.93 in 10.0 mi South 3.5 mph - N/A   Clear
6:35 AM 70.2 °F - 67.3 °F 91% 29.93 in 10.0 mi SSW 3.5 mph - N/A   Clear
6:55 AM 70.9 °F - 67.6 °F 89% 29.94 in 10.0 mi SSW 3.5 mph - N/A   Scattered Clouds
7:15 AM 72.1 °F - 65.3 °F 79% 29.94 in 10.0 mi Calm Calm - N/A   Mostly Cloudy
7:35 AM 73.2 °F - 65.5 °F 77% 29.94 in 10.0 mi SW 3.5 mph - N/A   Mostly Cloudy
7:55 AM 74.5 °F - 65.5 °F 73% 29.95 in 10.0 mi SSW 5.8 mph - N/A   Scattered Clouds
8:15 AM 75.9 °F - 65.8 °F 71% 29.94 in 10.0 mi SSW 5.8 mph - N/A   Scattered Clouds
8:35 AM 77.5 °F - 65.7 °F 67% 29.95 in 10.0 mi SSW 6.9 mph - N/A   Clear
8:55 AM 78.8 °F - 65.7 °F 64% 29.94 in 10.0 mi SSW 8.1 mph - N/A   Clear
9:15 AM 80.1 °F 82.1 °F 65.8 °F 62% 29.94 in 10.0 mi SSW 9.2 mph - N/A   Clear
9:35 AM 80.4 °F 82.4 °F 65.7 °F 61% 29.94 in 10.0 mi SSW 8.1 mph - N/A   Clear
9:55 AM 80.8 °F 82.6 °F 65.5 °F 59% 29.94 in 10.0 mi SW 8.1 mph 16.1 mph N/A   Clear
10:15 AM 81.5 °F 83.6 °F 65.8 °F 59% 29.94 in 10.0 mi SW 9.2 mph 18.4 mph N/A   Clear
10:35 AM 82.4 °F 84.4 °F 65.7 °F 57% 29.94 in 10.0 mi WSW 11.5 mph - N/A   Clear
10:55 AM 84.2 °F 86.6 °F 66.2 °F 55% 29.94 in 10.0 mi SSW 6.9 mph - N/A   Clear
11:15 AM 84.7 °F 86.8 °F 66.0 °F 53% 29.94 in 10.0 mi SSW 9.2 mph - N/A   Clear
11:35 AM 84.4 °F 86.6 °F 66.2 °F 54% 29.93 in 10.0 mi WSW 8.1 mph 16.1 mph N/A   Clear
11:55 AM 85.5 °F 87.9 °F 66.7 °F 53% 29.93 in 10.0 mi SW 5.8 mph 18.4 mph N/A   Clear
12:15 PM 86.0 °F 88.8 °F 66.9 °F 53% 29.92 in 10.0 mi SW 12.7 mph 18.4 mph N/A   Clear
12:35 PM 86.5 °F 89.3 °F 67.1 °F 52% 29.92 in 10.0 mi SSW 9.2 mph 16.1 mph N/A   Clear
12:55 PM 87.3 °F 90.2 °F 67.3 °F 51% 29.91 in 10.0 mi SW 9.2 mph - N/A   Clear
1:15 PM 88.7 °F 91.9 °F 67.1 °F 49% 29.91 in 10.0 mi SSW 8.1 mph 20.7 mph N/A   Clear
1:35 PM 88.3 °F 91.2 °F 67.1 °F 49% 29.91 in 10.0 mi SW 13.8 mph 20.7 mph N/A   Clear
1:55 PM 89.4 °F 92.7 °F 67.3 °F 48% 29.90 in 10.0 mi SSW 12.7 mph 17.3 mph N/A   Clear
2:15 PM 89.6 °F 93.0 °F 67.6 °F 48% 29.90 in 10.0 mi WSW 13.8 mph 19.6 mph N/A   Clear
2:35 PM 88.5 °F 91.9 °F 68.0 °F 50% 29.91 in 10.0 mi SW 9.2 mph 18.4 mph N/A   Scattered Clouds
2:55 PM 88.0 °F 91.8 °F 68.4 °F 52% 29.91 in 10.0 mi SSW 9.2 mph 17.3 mph N/A   Mostly Cloudy
3:15 PM 86.9 °F 90.6 °F 68.2 °F 54% 29.92 in 10.0 mi WSW 11.5 mph 17.3 mph N/A   Mostly Cloudy
3:35 PM 87.1 °F 90.9 °F 68.5 °F 54% 29.92 in 10.0 mi WSW 11.5 mph 18.4 mph N/A   Overcast
3:55 PM 86.0 °F 89.7 °F 68.7 °F 56% 29.92 in 10.0 mi WSW 10.4 mph - N/A   Overcast
4:15 PM 86.0 °F 90.1 °F 69.1 °F 57% 29.92 in 10.0 mi WSW 6.9 mph - N/A   Overcast
4:35 PM 85.5 °F 89.4 °F 69.3 °F 58% 29.91 in 10.0 mi SW 8.1 mph - N/A   Overcast
4:55 PM 85.5 °F 90.1 °F 70.0 °F 60% 29.91 in 10.0 mi SW 8.1 mph - N/A   Mostly Cloudy
5:15 PM 85.1 °F 89.8 °F 70.2 °F 61% 29.90 in 10.0 mi WSW 5.8 mph 10.4 mph N/A   Scattered Clouds
5:35 PM 84.2 °F 88.4 °F 69.8 °F 62% 29.90 in 10.0 mi WSW 9.2 mph - N/A   Scattered Clouds
5:55 PM 83.1 °F 87.1 °F 69.8 °F 64% 29.92 in 10.0 mi WSW 6.9 mph - N/A   Scattered Clouds
6:15 PM 82.4 °F 86.3 °F 70.2 °F 66% 29.95 in 10.0 mi West 5.8 mph - N/A   Scattered Clouds
6:35 PM 79.7 °F - 72.1 °F 78% 29.96 in 7.0 mi WNW 4.6 mph - N/A Rain Rain
6:55 PM 77.2 °F - 75.6 °F 95% 29.96 in 7.0 mi Calm Calm - 0.02 in Rain Light Rain
7:15 PM 76.1 °F - 74.7 °F 95% 29.94 in 7.0 mi WNW 4.6 mph - N/A Rain Light Rain
7:35 PM 75.4 °F - 73.9 °F 95% 29.93 in 10.0 mi North 4.6 mph - N/A   Clear
7:55 PM 73.9 °F - 73.4 °F 98% 29.95 in 10.0 mi NNE 3.5 mph - N/A   Clear
8:15 PM 73.2 °F - 72.7 °F 98% 29.98 in 10.0 mi NNE 9.2 mph - N/A   Clear
8:35 PM 71.1 °F - 69.8 °F 96% 29.98 in 10.0 mi ENE 6.9 mph - N/A   Clear
8:55 PM 70.0 °F - 69.6 °F 99% 29.99 in 10.0 mi ENE 3.5 mph - N/A   Clear
9:15 PM 68.9 °F - 68.9 °F 100% 30.00 in 10.0 mi Calm Calm - N/A   Clear
9:35 PM 68.0 °F - 68.0 °F 100% 30.01 in 7.0 mi Calm Calm - N/A   Clear
9:55 PM 67.5 °F - 67.5 °F 100% 30.01 in 7.0 mi Calm Calm - N/A   Scattered Clouds
10:15 PM 67.1 °F - 67.1 °F 100% 30.01 in 5.0 mi Calm Calm - N/A   Mostly Cloudy
10:35 PM 67.1 °F - 67.1 °F 100% 30.02 in 5.0 mi Calm Calm - N/A   Mostly Cloudy
10:55 PM 66.6 °F - 66.6 °F 100% 30.01 in 4.0 mi Calm Calm - N/A   Scattered Clouds
11:15 PM 66.2 °F - 66.2 °F 100% 30.01 in 3.0 mi Calm Calm - N/A   Clear
11:35 PM 65.3 °F - 65.3 °F 100% 30.00 in 1.2 mi Calm Calm - N/A   Mist
11:55 PM 64.4 °F - 64.4 °F 100% 30.00 in 0.5 mi Calm Calm - N/A Fog Fog